Вернуться в каталог

STARLINK-37596

АктивенСвязьSSO
NORAD 69032·PAYLOAD·🇺🇸 United States

Запущен May 6, 2026 с Vandenberg Space Force Base

Loading…

Ближайшие Пролёты (ближайшие 24 часа)

TLE

СвежийSource: CelesTrak SupGP

Эпоха: Sep 15, 2026, 03:55 UTC

1 69032C 26101H   26258.16368056 -.00037410  00000+0 -11609-2 0  2581
2 69032  97.2851 111.7970 0001919  94.1668 351.7021 15.33469035    13

Отслеживайте STARLINK-37596 в реальном времени с AllMySat

Download on the App Store